#timestamp,LO_Frequency,Hit,StdDev 
1535774415.6,286046998.5,N
1535774435.5,286046998.8,N
1535774455.3,286046999.4,N
1535774475.1,286046999.1,N
1535774495.9,286047001.1,N
1535774515.7,286047000.1,N
1535774535.5,286047000.0,N
1535774555.4,286047002.2,N
1535774575.2,286047000.8,N
1535774595.0,286046998.3,N
1535774595.9,286046998.3,N
1535774615.8,286046998.8,N
1535774635.6,286047001.1,N
1535774655.5,286047000.4,N
1535774675.3,286046999.8,N
1535774695.1,286047001.1,N
1535774715.9,286046999.4,N
1535774735.7,286046999.9,N
1535774755.5,286046999.8,N
1535774775.4,286047000.4,N
1535774795.2,286046998.5,N
1535774815.1,286047000.1,N
1535774816.0,286047000.1,N
1535774835.8,286046999.6,N
1535774855.6,286047001.2,N
1535774875.5,286046998.1,N
1535774895.3,286047000.2,N
1535774915.1,286047001.9,N
1535774935.9,286047002.4,N
1535774955.7,286047000.3,N
1535774975.6,286047002.8,N
1535774995.4,286047001.5,N
1535775015.2,286047004.4,Y
1535775035.1,286047004.4,P
1535775036.0,286047004.4,N
1535775055.8,286047001.5,N
1535775075.7,286047001.7,N
1535775095.5,286047002.8,N
1535775115.3,286047002.5,N
1535775135.2,286047002.0,N
1535775155.9,286046999.9,N
1535775175.7,286047002.2,N
1535775195.6,286047000.7,N
1535775215.4,286047000.1,N
1535775235.2,286047002.3,N
1535775255.1,286047002.2,N
1535775256.0,286047002.2,N
1535775275.8,286047004.3,Y
1535775295.7,286046998.4,P
1535775315.5,286046998.3,N
1535775335.3,286046998.9,N
1535775355.2,286046996.5,N
1535775375.0,286046997.8,N
1535775375.9,286046997.8,N
1535775395.8,286046995.2,Y
1535775415.6,286046999.3,P
1535775435.4,286046999.6,N
1535775455.3,286047001.1,N
1535775475.1,286046999.9,N
1535775495.8,286046999.0,N
1535775515.7,286046998.8,N
1535775535.5,286047001.0,N
1535775555.4,286047001.1,N
1535775575.2,286047001.2,N
1535775595.0,286047004.4,Y
1535775595.9,286047004.4,P
1535775615.8,286047002.3,N
1535775635.6,286047002.7,N
1535775655.4,286047002.7,N
1535775675.3,286047000.2,N
1535775695.1,286047000.7,N
1535775715.9,286047000.1,N
1535775735.7,286047000.2,N
1535775755.5,286047000.5,N
1535775775.4,286046998.5,N
1535775795.2,286046999.5,N
1535775815.0,286046998.5,N
1535775815.9,286046998.5,N
1535775835.8,286046998.7,N
1535775855.6,286046999.8,N
1535775875.5,286046999.7,N
1535775895.3,286047003.8,N
1535775915.1,286047001.4,N
1535775935.9,286047003.0,N
1535775955.7,286047005.4,Y
1535775975.5,286047005.4,P
1535775995.4,286047007.5,P
1535776015.2,286047005.2,N
1535776035.1,286047001.8,N
1535776036.0,286047001.8,N
1535776055.8,286047001.8,N
1535776075.6,286047003.8,N
1535776095.5,286047003.5,N
1535776115.3,286047005.8,N
1535776135.1,286047003.7,N
1535776155.9,286047001.4,N
1535776175.7,286047001.4,N
1535776195.6,286046999.7,N
1535776215.4,286046998.8,N
1535776235.2,286046996.5,N
1535776255.1,286047002.0,N
1535776256.0,286047002.0,N
1535776275.8,286047002.0,N
1535776295.6,286047002.4,N
1535776315.5,286047002.6,N
1535776335.3,286047001.9,N
1535776355.1,286047000.0,N
1535776375.9,286047002.4,N
1535776395.7,286047004.4,N
1535776415.6,286047001.6,N
1535776435.4,286047003.8,N
1535776455.2,286047003.3,N
1535776475.1,286047004.1,N
1535776476.0,286047004.1,N
1535776495.8,286047002.4,N
1535776515.6,286047000.0,N
1535776535.5,286047002.8,N
1535776555.3,286047001.8,N
1535776575.2,286047006.3,Y
1535776595.9,286047003.5,P
1535776615.7,286047001.7,N
1535776635.6,286047000.9,N
1535776655.4,286047004.0,Y
1535776675.2,286047003.7,P
1535776695.1,286047002.2,N
1535776696.0,286047002.2,N
1535776715.8,286047000.8,N
1535776735.7,286046999.4,N
1535776755.5,286046999.4,N
1535776775.3,286046999.3,N
1535776795.2,286047000.8,N
1535776815.0,286046998.8,N
1535776815.9,286046998.8,N
1535776835.8,286046995.1,Y
1535776855.6,286046993.7,P
1535776875.4,286046995.6,N
1535776895.3,286046993.3,N
1535776915.1,286046996.1,N
1535776935.8,286046996.4,N
1535776955.7,286046993.8,N
1535776975.5,286046996.2,N
1535776995.3,286046995.1,N
1535777015.2,286046995.6,N
1535777035.0,286046996.8,N
1535777035.9,286046996.8,N
1535777055.8,286046997.1,N
1535777075.6,286046999.5,N
1535777095.4,286046998.9,N
1535777115.3,286046998.4,N
1535777135.1,286046998.4,N
1535777155.8,286046997.3,N
1535777175.7,286046997.4,N
1535777195.5,286046997.8,N
1535777215.4,286046995.3,N
1535777235.2,286046997.3,N
1535777255.0,286046997.9,N
1535777255.9,286046997.9,N
1535777275.8,286046999.2,N
1535777295.6,286046999.9,N
1535777315.4,286047001.0,N
1535777335.3,286047000.8,N
1535777355.1,286046999.1,N
1535777375.9,286046998.9,N
1535777395.7,286046997.3,N
1535777415.5,286046996.7,N
1535777435.4,286046998.5,N
1535777455.2,286046998.6,N
1535777475.0,286047000.8,N
1535777476.0,286047000.8,N
1535777495.8,286047002.1,N
1535777515.6,286047003.7,N
1535777535.5,286047004.1,N
1535777555.3,286046998.4,N
1535777575.1,286046995.4,N
1535777595.9,286046996.7,N
1535777615.7,286046994.9,N
1535777635.5,286046996.1,N
1535777655.4,286046997.4,N
1535777675.2,286046999.2,N
1535777695.1,286046997.2,N
1535777696.0,286046997.2,N
1535777715.8,286046996.6,N
1535777735.6,286046998.5,N
1535777755.5,286046999.3,N
1535777775.3,286046999.2,N
1535777795.1,286046998.3,N
1535777815.9,286046998.9,N
1535777835.7,286046999.4,N
1535777855.6,286046995.2,N
1535777875.4,286046997.5,N
1535777895.2,286046997.0,N
1535777915.1,286046997.1,N
1535777916.0,286046997.1,N
1535777935.8,286046997.5,N
1535777955.6,286046995.3,N
1535777975.5,286046995.6,N
1535777995.3,286046999.1,N
